{"data":{"norad_id":82311,"epoch":"2026-09-16T08:58:49.018944Z","epoch_age_seconds":371506,"freshness":"STALE","line1":"1 82311U          26259.37417846  .00000481  00000+0  73465-3 0  9999","line2":"2 82311  99.4115 305.3443 0107382 326.6875  32.7536 13.54882781587919","mean_motion":13.54882781,"eccentricity":0.0107382,"inclination_deg":99.4115,"raan_deg":305.3443,"arg_perigee_deg":326.6875,"mean_anomaly_deg":32.7536,"bstar":0.00073465,"rev_number":58791,"period_min":106.28225704789,"perigee_km":974.53622387633,"apogee_km":1134.1592389622,"semimajor_km":7432.4847314193,"source":"CELESTRAK","updated_at":"2026-09-20T09:00:32.432641Z"}}